Weather in Novoitkulskoye

Russia / Novosibirsk Oblast     55°02′56″N   81°03′46″E
temp.,
°C
wind,
m/s
gust,
m/s
humid.,
%
clouds,
%
prec.,
mm/h
press.,
hPa
HPBL,
m
28 february, sun
sun2801:00−30ssw349826 0.0 103852
04:00−30ssw339865 0.0 103729
07:00−30s349764 0.0 103732
10:00−27sse379562 0.0 1035156
13:00−21se479162 0.0 1032309
16:00−17se5890100 0.0 1029430
19:00−16ese4796100 0.1 1026312
22:00−15ese599484 0.1 1023243
1 march, mon
mon101:00−13ese599592 0.4 1019287
04:00−10ese5995100 0.7 1015378
07:00−8ese5995100 2.4 1011408
10:00−6e6995100 1.6 1008374
13:00−4ene5896100 3.6 1007337
16:00−3ene5697100 2.1 1005257
19:00−4ne5996100 5.3 1006328
22:00−9nne5995100 0.9 1007283
2 march, tue
tue201:00−11nne369599 1.1 1010234
04:00−15nne349691 0.1 101293
07:00−17nne229790 0.3 101524
10:00−17nne119690 0.1 101738
13:00−13wsw238995 0.1 1018380
16:00−12sw3491100 0.1 1017458
19:00−14ssw239699 0.3 101763
22:00−16ssw229688 0.1 101720
3 march, wed
wed301:00−16s119694 0.1 101620
04:00−16sse119792 0.2 101520
07:00−16se019796 0.4 101620
10:00−14s0095100 0.2 101680
13:00−12wsw2288100 0.4 1017389
16:00−10sw3489100 0.1 1018507
19:00−13wsw3495100 0.2 1019117
22:00−17sw339789 0.0 102135
4 march, thu
thu401:00−18ssw469889 0.1 1022116
04:00−21s449867 0.0 102282
07:00−17sse499477 0.0 1022213
10:00−15sse6109296 0.0 1021297
13:00−10s6119098 0.0 1020468
16:00−8s61187100 0.0 1017548
19:00−9sse61289100 0.0 1016461
22:00−10sse5128993 0.0 1014315